Location: Maccacari
(45.1333°N, 11.1333°E)
Time: 07:09:14
(UTC+00:00)

Cosmos 468 - Pass Details

Date: 18 September 2020
Orbit: 761 x 784 km, 74.0° (Epoch: 29 October)

Event Time Altitude Azimuth Distance (km) Brightness Sun altitude
Rises 19:10:35 0° 339° (NNW) 3,277 8.4 -19.7°
Reaches altitude 10° 19:12:59 10° 340° (NNW) 2,347 7.6 -20.1°
Maximum altitude 19:18:20 83° 68° (ENE) 796 4.4 -21.0°
Enters shadow 19:20:22 39° 153° (SSE) 1,154 5.0 -21.3°
